Home > Weather > Agadir > Past weeks

Flag for Morocco Weather for the Past 2 Weeks in Agadir, Morocco

Now
59 °F

Scattered clouds.


Feels Like: 60 °F
Forecast: 57 / 71 °F
Wind: 3 mph from West

Location: Agadir Al Massira

Current Time: Feb 9, 2016 at 10:45:00 AM

Latest Report: Feb 9, 2016 at 10:00 AM


Visibility: N/A

Pressure: 30.42 "Hg

Humidity: 94%

Dew point: 57 °F

Location of AgadirLocation

Historic Weather in Agadir — Graph

°F

Agadir Temperature Yesterday

Maximum temperature yesterday: 73 °F (at 12:00 PM)
Minimum temperature yesterday: 48 °F (at 7:00 AM)
Average temperature yesterday: 61 °F

High & Low Weather Summary for the Past Weeks

 TemperatureHumidityPressure
High84 °F (Feb 6, 2:30 PM)100% (Jan 26, 3:30 AM)30.45 "Hg (Jan 26, 3:30 AM)
Low41 °F (Jan 31, 6:30 AM)13% (Feb 6, 2:30 PM)30.12 "Hg (Feb 5, 3:00 PM)
Average61 °F52%30.30 "Hg
* Reported Jan 25 10:00 AM — Feb 9 10:00 AM, Agadir, Weather by CustomWeather, © 2016

Note: Actual official high and low records may vary slightly from our data, if they occured in-between our weather recording intervals... More about our weather records

Advertising

Agadir Weather History for the Previous 24 Hours

 ConditionsComfort  
Time TempWeatherWind HumidityBarometerVisibility
10:00 AM
Tue, Feb 9
59 °FScattered clouds.3 mph94%30.42 "HgN/A
9:30 AM57 °FScattered clouds.3 mph94%30.42 "HgN/A
9:00 AM54 °FScattered clouds.5 mph94%30.42 "HgN/A
8:00 AM48 °FScattered clouds.5 mph94%30.39 "Hg5 mi
7:30 AM48 °FFog.1 mph94%30.39 "Hg1 mi
7:00 AM48 °FFog.3 mph100%30.39 "Hg0 mi
6:00 AM50 °FFog.2 mph94%30.36 "Hg0 mi
5:30 AM50 °FCool.5 mph94%30.36 "Hg0 mi
5:00 AM50 °FClear.3 mph94%30.36 "Hg1 mi
4:30 AM50 °FClear.2 mph94%30.36 "Hg1 mi
4:00 AM52 °FClear.6 mph88%30.36 "Hg1 mi
3:30 AM52 °FClear.5 mph88%30.36 "Hg4 mi
3:00 AM52 °FClear.5 mph94%30.39 "Hg4 mi
2:30 AM52 °FClear.6 mph94%30.39 "Hg10 mi
2:00 AM52 °FClear.5 mph88%30.39 "Hg10 mi
1:30 AM52 °FClear.6 mph88%30.39 "Hg10 mi
1:00 AM52 °FClear.6 mph94%30.39 "Hg10 mi
12:30 AM52 °FClear.5 mph94%30.42 "Hg10 mi
12:00 AM52 °FClear.5 mph88%30.42 "Hg10 mi
11:30 PM
Mon, Feb 8
52 °FClear.3 mph94%30.39 "Hg10 mi
11:00 PM55 °FClear.2 mph82%30.39 "Hg10 mi
10:30 PM57 °FClear.5 mph82%30.39 "Hg10 mi
10:00 PM54 °FClear.5 mph82%30.39 "Hg10 mi
9:30 PM55 °FClear.2 mph77%30.39 "Hg10 mi
9:00 PM57 °FClear.3 mph72%30.36 "Hg10 mi
8:30 PM57 °FClear.3 mph72%30.36 "Hg10 mi
8:00 PM61 °FClear.5 mph63%30.33 "Hg10 mi
7:30 PM61 °FClear.3 mph63%30.33 "Hg10 mi
7:00 PM64 °FClear.3 mph60%30.33 "Hg10 mi
6:30 PM66 °FClear.5 mph56%30.30 "Hg10 mi
6:00 PM68 °FPassing clouds.6 mph53%30.30 "HgN/A
5:30 PM70 °FPassing clouds.7 mph50%30.30 "HgN/A
5:00 PM72 °FPassing clouds.8 mph44%30.30 "HgN/A
4:30 PM72 °FPassing clouds.9 mph44%30.30 "HgN/A
4:00 PM70 °FPassing clouds.12 mph43%30.30 "HgN/A
3:30 PM70 °FSunny.13 mph53%30.30 "Hg10 mi
2:30 PM72 °FSunny.14 mph44%30.30 "Hg10 mi
2:00 PM72 °FSunny.15 mph47%30.30 "Hg10 mi
1:30 PM70 °FSunny.12 mph53%30.33 "Hg10 mi
1:00 PM70 °FPassing clouds.12 mph57%30.33 "HgN/A
12:30 PM70 °FSunny.13 mph60%30.36 "Hg10 mi
12:00 PM73 °FSunny.3 mph25%30.36 "Hg10 mi
11:30 AM72 °FSunny.2 mph29%30.36 "Hg10 mi
11:00 AM70 °FPassing clouds.3 mph29%30.36 "HgN/A
10:30 AM66 °FPassing clouds.3 mph43%30.39 "HgN/A
10:00 AM64 °FSunny.2 mph49%30.36 "Hg10 mi
Weather by CustomWeather, © 2016

See weather overviewHow to use our weather pages